www.pogodaiklimat.ru

Погода и климат >> Архив погоды >> Австралия >> Birdsville Airport


ПОГОДА в Birdsville Airport

  • Прогноз погоды в Birdsville Airport
  • Монитор погоды в Birdsville Airport
  • Климат города

АРХИВ ПОГОДЫ в Birdsville Airport

Время (UTC), дата Ветер
(напр.,м/с)
 
Видим.   Явления Облачность Т
(С)
Тd
(С)
f
(%)
Тe
(С)
Тes
(С)
Комфортность P
(гПа)
Po
(гПа)
Тmin
(С)
Tmax
(С)
R
(мм)
S
(см)
23 21.03 ЮВ 7 н/о н/о +30.4 +10.9 30 +31 +31 жарко 1011.7 1006.4
00 22.03 ЮВ 7 н/о н/о +33.0 +11.5 27 +33 +33 жарко 1011.9 1006.6
02 22.03 Ю 6 н/о н/о +36.8 +10.2 20 +36 +36 очень
жарко
1010.7 1005.4 +23.9
03 22.03 ЮВ 6 н/о н/о +38.1 +9.6 18 +37 +37 очень
жарко
1009.9 1004.6
05 22.03 ЮВ 4 н/о н/о +39.7 +10.1 17 +38 +38 очень
жарко
1008.2 1002.9
06 22.03 Ю 4 н/о н/о +39.2 +9.7 17 +38 +38 очень
жарко
1007.6 1002.3
08 22.03 ЮЗ 6 н/о н/о +38.8 +9.4 17 +37 +37 очень
жарко
1007.7 1002.4
09 22.03 Ю 4 н/о н/о +37.1 +9.6 19 +36 +36 очень
жарко
1008.2 1002.9
11 22.03 Ю 6 н/о н/о +34.2 +8.8 21 +33 +33 жарко 1009.9 1004.6
12 22.03 ЮЗ 5 н/о н/о +32.0 +7.6 22 +31 +31 жарко 1010.5 1005.2
14 22.03 Ю 4 н/о н/о +28.9 +7.5 26 +28 +28 жарко 1010.9 1005.6 +40.7
15 22.03 Ю 5 н/о н/о +28.6 +8.8 29 +28 +28 жарко 1010.6 1005.3
17 22.03 ЮЗ 7 н/о н/о +26.4 +7.4 30 +26 +26 жарко 1009.6 1004.3
18 22.03 ЮЗ 6 н/о н/о +26.3 +8.3 32 +26 +26 жарко 1009.3 1004.0
20 22.03 ЮВ 3 н/о н/о +23.8 +8.6 38 +24 +24 комфорт 1010.4 1005.1
21 22.03 ЮВ 3 н/о н/о +23.1 +8.0 38 +24 +24 комфорт 1011.3 1006.0
23 22.03 Ю 4 н/о н/о +27.5 +7.9 29 +27 +27 жарко 1012.2 1006.9
00 23.03 Ю 3 н/о н/о +30.7 +7.8 24 +30 +30 жарко 1012.0 1006.7
02 23.03 В 2 н/о н/о +36.2 +5.5 15 +34 +34 очень
жарко
1010.9 1005.6 +23.2
03 23.03 ЮЗ 4 н/о н/о +37.9 +5.8 14 +35 +35 очень
жарко
1009.6 1004.3
05 23.03 В 2 н/о н/о +39.2 +3.4 11 +36 +36 очень
жарко
1008.0 1002.7
06 23.03 ЮЗ 4 н/о н/о +39.3 +0.6 9 +36 +36 очень
жарко
1007.6 1002.3
08 23.03 ЮЗ 4 н/о н/о +38.4 -3.4 7 +34 +34 очень
жарко
1007.5 1002.2
09 23.03 ЮЗ 3 н/о н/о +35.9 -3.5 8 +32 +32 жарко 1008.0 1002.7
11 23.03 ЮЗ 2 н/о н/о +31.7 -1.2 12 +28 +28 жарко 1009.0 1003.7
12 23.03 З 5 н/о н/о +29.9 -0.5 14 +27 +27 жарко 1009.6 1004.3
14 23.03 ЮЗ 4 н/о н/о +26.4 -1.4 16 +24 +24 комфорт 1009.7 1004.4 +40.5
15 23.03 ЮЗ 4 н/о н/о +25.3 -1.5 17 +23 +23 комфорт 1009.5 1004.2
17 23.03 Ю 4 н/о н/о +25.6 +6.8 30 +25 +25 комфорт 1008.9 1003.6
18 23.03 Ю 3 н/о н/о +25.1 +8.6 35 +26 +26 жарко 1008.6 1003.3
20 23.03 ЮЗ 3 н/о н/о +23.1 +10.2 44 +25 +25 комфорт 1009.0 1003.7
21 23.03 Ю 3 н/о н/о +22.4 +9.2 43 +24 +24 комфорт 1009.2 1003.9
23 23.03 ЮВ 5 н/о н/о +29.5 +12.9 36 +31 +31 жарко 1010.1 1004.8
00 24.03 ЮВ 4 н/о н/о +32.6 +12.3 29 +33 +33 жарко 1009.8 1004.5
02 24.03 В 3 н/о н/о +38.5 +10.0 18 +37 +37 очень
жарко
1008.8 1003.5 +22.4
03 24.03 В 4 н/о н/о +40.0 +5.2 12 +37 +37 очень
жарко
1007.7 1002.4
05 24.03 СВ 4 н/о н/о +40.6 +4.4 11 +38 +38 очень
жарко
1005.9 1000.6
06 24.03 СВ 3 н/о н/о +40.9 +5.9 12 +38 +38 очень
жарко
1005.5 1000.2
08 24.03 В 2 н/о н/о +40.7 +5.7 12 +38 +38 очень
жарко
1005.6 1000.3
09 24.03 штиль 0 н/о н/о +38.6 +6.3 14 +36 +36 очень
жарко
1005.9 1000.6
11 24.03 В 3 н/о н/о +34.3 +4.9 16 +32 +32 жарко 1007.0 1001.7
12 24.03 В 3 н/о н/о +33.5 +5.9 18 +31 +31 жарко 1007.2 1001.9
14 24.03 СВ 3 н/о н/о +31.7 +6.0 20 +30 +30 жарко 1007.8 1002.5 +42.2
15 24.03 ЮЗ 4 н/о н/о +31.9 +5.4 19 +30 +30 жарко 1007.6 1002.3
17 24.03 ЮЗ 4 н/о н/о +29.8 +5.1 21 +28 +28 жарко 1007.0 1001.7
18 24.03 ЮЗ 4 н/о н/о +28.1 +4.4 22 +27 +27 жарко 1007.0 1001.7
20 24.03 Ю 3 н/о н/о +26.9 +4.6 24 +26 +26 жарко 1007.6 1002.3
21 24.03 ЮВ 4 н/о н/о +27.7 +6.5 26 +27 +27 жарко 1008.6 1003.3
23 24.03 ЮВ 3 н/о н/о +34.0 +11.2 25 +34 +34 очень
жарко
1010.1 1004.8
00 25.03 С 6 н/о н/о +35.9 +15.6 30 +38 +38 очень
душно
1010.3 1005.0
02 25.03 СВ 3 н/о н/о +39.8 +17.3 27 +42 +42 опасность
перегрева
1009.2 1003.9 +26.9
03 25.03 В 4 н/о н/о +40.3 +14.5 22 +41 +41 опасность
перегрева
1008.0 1002.7
05 25.03 С 2 н/о н/о +40.7 +14.1 21 +41 +41 опасность
перегрева
1006.4 1001.1
06 25.03 В 3 н/о н/о +40.8 +14.2 21 +41 +41 опасность
перегрева
1006.1 1000.8
08 25.03 В 3 н/о н/о +40.2 +13.7 21 +40 +40 очень
жарко
1006.1 1000.8
09 25.03 ЮВ 5 н/о н/о +39.2 +14.3 23 +40 +40 очень
душно
1006.5 1001.2
11 25.03 ЮВ 3 н/о н/о +36.4 +13.2 25 +37 +37 очень
жарко
1007.9 1002.6
12 25.03 ЮВ 3 н/о н/о +35.2 +13.9 28 +36 +36 очень
жарко
1008.5 1003.2
14 25.03 ЮВ 3 н/о н/о +32.6 +13.3 31 +34 +34 очень
жарко
1008.6 1003.3 +42.6
15 25.03 ЮВ 3 н/о н/о +32.9 +13.0 30 +34 +34 очень
жарко
1008.1 1002.8
17 25.03 Ю 2 н/о н/о +30.7 +13.0 34 +32 +32 жарко 1007.8 1002.5
18 25.03 ЮВ 2 н/о н/о +30.6 +13.4 35 +32 +32 жарко 1007.8 1002.5
20 25.03 ЮВ 3 н/о н/о +29.9 +13.2 36 +31 +31 жарко 1008.7 1003.4
21 25.03 В 3 н/о н/о +29.6 +12.9 36 +31 +31 жарко 1009.3 1004.0
23 25.03 С 8 н/о н/о +36.5 +15.0 28 +38 +38 очень
душно
1010.5 1005.2
00 26.03 С 8 н/о н/о +38.2 +15.3 26 +40 +40 очень
душно
1010.6 1005.3
02 26.03 С 6 н/о н/о +41.1 +15.1 22 +42 +42 опасность
перегрева
1009.4 1004.1 +29.6
03 26.03 СВ 6 н/о н/о +41.6 +14.8 21 +42 +42 опасность
перегрева
1008.6 1003.3
05 26.03 В 5 н/о н/о +42.3 +13.0 18 +42 +42 опасность
перегрева
1006.6 1001.3
06 26.03 В 6 н/о н/о +42.4 +13.1 18 +42 +42 опасность
перегрева
1005.9 1000.6
08 26.03 В 5 н/о н/о +40.9 +11.9 18 +40 +40 очень
жарко
1006.1 1000.8
09 26.03 В 4 н/о н/о +39.3 +12.2 20 +39 +39 очень
жарко
1006.7 1001.4
11 26.03 СВ 2 н/о н/о +35.4 +10.4 22 +34 +34 очень
жарко
1008.5 1003.2
12 26.03 СВ 3 н/о н/о +34.7 +11.2 24 +34 +34 очень
жарко
1009.0 1003.7
14 26.03 СВ 3 н/о н/о +32.4 +10.4 26 +32 +32 жарко 1009.2 1003.9 +43.1
15 26.03 СВ 3 н/о н/о +32.0 +10.7 27 +32 +32 жарко 1009.0 1003.7
17 26.03 СВ 3 н/о н/о +30.6 +10.0 28 +30 +30 жарко 1008.4 1003.1
18 26.03 СВ 3 н/о н/о +30.6 +11.1 30 +31 +31 жарко 1008.2 1002.9
20 26.03 С 3 н/о н/о +29.3 +10.4 31 +29 +29 жарко 1008.5 1003.2
21 26.03 СВ 3 н/о н/о +28.6 +10.3 32 +29 +29 жарко 1009.1 1003.8
23 26.03 С 4 н/о н/о +35.7 +11.4 23 +35 +35 очень
жарко
1010.2 1004.9
00 27.03 С 6 н/о н/о +39.4 +12.3 20 +39 +39 очень
жарко
1010.3 1005.0
02 27.03 В 5 н/о н/о +41.2 +10.4 16 +40 +40 очень
жарко
1009.1 1003.8 +28.2
03 27.03 СВ 3 н/о н/о +41.7 +9.8 15 +40 +40 очень
жарко
1007.9 1002.6
05 27.03 В 3 н/о н/о +42.2 +9.2 14 +40 +40 очень
жарко
1006.4 1001.1
06 27.03 В 4 н/о н/о +42.5 +8.3 13 +40 +40 очень
жарко
1005.7 1000.4
08 27.03 Ю 5 н/о н/о +42.2 +9.2 14 +40 +40 очень
жарко
1005.8 1000.5
09 27.03 ЮВ 2 н/о н/о +40.6 +9.9 16 +39 +39 очень
жарко
1006.2 1000.9
11 27.03 В 2 н/о н/о +37.4 +9.9 19 +36 +36 очень
жарко
1007.5 1002.2
12 27.03 ЮВ 3 н/о н/о +36.6 +10.0 20 +35 +35 очень
жарко
1007.9 1002.6
14 27.03 Ю 5 н/о н/о +35.1 +12.7 26 +35 +35 очень
жарко
1008.8 1003.5 +43.8
15 27.03 Ю 4 н/о н/о +33.7 +12.7 28 +34 +34 очень
жарко
1008.4 1003.1
17 27.03 ЮЗ 4 н/о н/о +30.5 +11.9 32 +31 +31 жарко 1008.1 1002.8
18 27.03 ЮЗ 4 н/о н/о +29.4 +11.9 34 +30 +30 жарко 1007.8 1002.5
20 27.03 ЮЗ 5 н/о н/о +28.3 +11.8 36 +29 +29 жарко 1008.7 1003.4
21 27.03 ЮЗ 5 н/о н/о +27.5 +10.7 35 +28 +28 жарко 1009.1 1003.8
23 27.03 Ю 7 н/о н/о +31.0 +9.8 27 +31 +31 жарко 1010.1 1004.8
00 28.03 Ю 6 н/о н/о +33.7 +11.5 26 +34 +34 очень
жарко
1010.0 1004.7
02 28.03 Ю 6 н/о н/о +38.3 +12.1 21 +38 +38 очень
жарко
1008.7 1003.4 +27.5
03 28.03 Ю 5 н/о н/о +40.5 +12.4 19 +40 +40 очень
жарко
1007.6 1002.3
05 28.03 Ю 7 н/о н/о +43.0 +12.7 17 +43 +43 опасность
перегрева
1006.2 1000.9
06 28.03 Ю 7 н/о н/о +41.9 +11.8 17 +41 +41 опасность
перегрева
1005.7 1000.4
08 28.03 Ю 10 н/о н/о +40.1 +12.1 19 +39 +39 очень
жарко
1006.1 1000.8
09 28.03 Ю 8 н/о н/о +38.0 +11.1 20 +37 +37 очень
жарко
1006.7 1001.4
11 28.03 Ю 8 н/о н/о +35.6 +11.3 23 +35 +35 очень
жарко
1008.0 1002.7
12 28.03 Ю 8 н/о н/о +34.5 +10.4 23 +34 +34 очень
жарко
1008.7 1003.4
14 28.03 Ю 8 н/о н/о +32.5 +9.3 24 +32 +32 жарко 1008.2 1002.9 +43.3
15 28.03 Ю 7 н/о н/о +31.3 +8.9 25 +30 +30 жарко 1008.0 1002.7
17 28.03 Ю 5 н/о н/о +29.7 +8.7 27 +29 +29 жарко 1007.5 1002.2
18 28.03 Ю 5 н/о н/о +29.0 +8.7 28 +29 +29 жарко 1007.1 1001.8
20 28.03 Ю 3 н/о н/о +27.2 +8.6 31 +27 +27 жарко 1007.4 1002.1
21 28.03 Ю 4 н/о н/о +27.0 +8.4 31 +27 +27 жарко 1007.7 1002.4

 

Местоположение метеостанции Birdsville Airport (Квинсленд, Австралия): широта -25.90 долгота 139.35 высота над уровнем моря 47 м.

В архиве по умолчанию представлена погода в Birdsville Airport за последнюю неделю. Архивные данные за месяц целиком и за предыдущие месяцы, начиная с января 2011 года, Вы можете получить, выбрав интересующий диапазон дат из раскрывающегося списка и нажав кнопку "Ввод!".

Внимание! Время в таблицах - всемирное. Для получения местного времени необходимо прибавить поправку, которая в Birdsville Airport равна 10 ч.

Смотрите также архив погоды в соседних городах и на ближайших метеорологических станциях:

Погода в Moomba Airport (Южная Австралия, Австралия) (259 км)
Погода в Ballera Gas Field (Квинсленд, Австралия) (298 км)
Погода в Oodnadatta Airport (Южная Австралия, Австралия) (429 км)
Погода в Marree Aero (Южная Австралия, Австралия) (437 км)
Погода в Phosphate Hill Airport (Квинсленд, Австралия) (460 км)
Погода в Jervois (Северная территория, Австралия) (461 км)
Погода в Tibooburra Airport (Новый Южный Уэльс, Австралия) (476 км)
Погода в Trepell Airport (Квинсленд, Австралия) (479 км)
Погода в Thargomindah Airport (Квинсленд, Австралия) (499 км)
Погода в Leigh Creek Airport (Южная Австралия, Австралия) (531 км)

Пояснения к столбцам:

Ветер - указаны скорость ветра в м/с - средняя за 10 мин, порывы в срок и между сроками (в фигурных скобках) и направление, откуда дует ветер: С - северный, СВ - северо-восточный, В - восточный, ЮВ - юго-восточный, Ю - южный, ЮЗ - юго-западный, З - западный, СЗ - северо-западный.
Видимость - горизонтальная дальность видимости в метрах или километрах. При видимости от 1 до 10 км при отсутствии осадков обычно наблюдается дымка, при ухудшении видимости до 1 км и менее - туман. В сухую погоду видимость может ухудшаться дымом, пылью или мглою.
Явления - указаны атмосферные явления, наблюдавшиеся в срок или в последний час перед сроком; фигурными скобками обозначены явления, наблюдавшиеся между сроками (за 1-3 часа до срока); квадратными скобками обозначены град или гололедные отложения с указанием их диаметра в мм.
Облачность - указаны через наклонную черту общая и нижняя облачность в баллах и высота нижней границы облаков в метрах; квадратными скобками обозначены формы облаков: Ci - перистые, Cs - перисто-слоистые, Cc - перисто-кучевые, Ac - высококучевые, As - высокослоистые, Sc - слоисто-кучевые, Ns - слоисто-дождевые, Cu - кучевые, Cb - кучево-дождевые. Подробнее классификацию облаков см. в Атласе облаков (PDF).
T - Температура воздуха - температура, измеренная на высоте 2 м над землей.
Td - Температура точки росы - температура, при понижении до которой содержащийся в воздухе водяной пар достигнет насыщения.
f - Относительная влажность воздуха - влажноcть воздуха, измеренная на высоте 2 м над землей.
Te - Эффективная температура - температура, которую ощущает одетый по сезону человек в тени. Характеристика душности погоды. При расчете учитывается влияние влажности воздуха и скорости ветра на теплоощущения человека.
Tes - Эффективная температура на солнце - температура, которую ощущает человек, с поправкой на солнечный нагрев. Характеристика знойности погоды. Зависит от высоты солнца над горизонтом, облачности и скорости ветра. Ночью, в пасмурную погоду, а также при ветре 12 м/с и более поправка равна нулю.
P - Атмосферное давление - приведенное к уровню моря атмосферное давление.
Po - Атмосферное давление - измеренное на уровне метеостанции атмосферное давление.
Tmin - Минимальная температура - минимум температуры воздуха на высоте 2 м над землей.
Tmax - Максимальная температура - максимум температуры воздуха на высоте 2 м над землей.
R - Количество осадков - Количество выпавших осадков, мм. При наведении курсора мыши на число - период времени, за который выпало указанное количество осадков.
S - Снежный покров - Высота снежного покрова, см. При наведении курсора мыши на число - состояние снежного покрова и степень покрытия местности в баллах.